Wind_Speed
20 21 21 21 22 22 22 23 23 23 24 25 26 26 27 27 27 27 26 27 27 28 28 27 28 29 30 29 29 28 28 29 29 28 28 28 29 30 31 31 31 31 31
21 22 22 22 23 23 23 24 24 25 25 26 27 27 27 28 28 28 28 27 27 27 27 28 28 28 28 29 29 30 30 30 30 29 29 29 30 31 32 32 32 32 31
22 22 23 24 24 24 24 25 25 26 26 27 28 27 27 27 28 28 28 28 27 27 27 28 28 29 28 29 30 31 31 31 31 31 31 31 31 31 32 32 33 33 32
22 23 24 24 24 25 25 25 26 26 26 26 27 27 27 27 27 27 28 28 27 28 28 29 29 29 29 30 30 31 31 32 32 32 32 32 32 32 32 32 32 32 32
23 24 24 25 25 25 25 25 26 26 26 26 27 27 26 26 27 26 26 27 27 28 28 29 29 29 29 29 29 30 30 31 32 32 32 33 33 33 33 33 32 31 31
23 24 23 24 25 25 25 25 26 27 27 27 26 26 26 26 26 26 27 27 27 27 28 28 27 27 27 28 29 29 29 30 30 31 32 33 33 32 32 32 31 31 31
24 23 23 23 23 24 24 25 25 26 26 25 25 25 25 26 26 26 26 27 26 26 26 27 27 27 27 28 28 28 29 29 30 31 30 30 31 31 31 31 32 31 31
24 24 24 24 24 25 25 25 26 25 25 25 24 24 24 25 25 26 25 26 26 26 26 26 26 26 26 27 27 28 29 29 29 29 28 28 29 29 30 30 31 31 31
25 25 25 25 25 25 25 26 25 25 24 24 24 24 24 25 26 26 26 26 26 26 27 26 26 26 26 26 27 28 29 30 29 29 28 29 29 28 28 29 30 31 31
26 26 26 26 26 25 26 25 25 25 25 24 24 24 25 26 27 27 26 26 27 27 27 27 27 26 26 27 27 28 28 29 29 29 29 29 29 29 29 30 30 30 31
26 26 26 26 25 26 26 26 26 26 25 25 25 25 26 26 27 26 27 27 27 27 27 27 28 28 28 28 28 27 27 27 28 28 29 29 30 30 30 31 31 31 31
26 26 25 26 26 26 26 26 26 26 26 26 27 27 27 27 26 26 27 27 26 26 27 27 28 28 28 28 28 27 27 27 28 28 28 29 30 31 31 31 31 31 31
25 25 25 25 25 25 25 26 27 27 27 27 27 27 27 26 26 26 26 26 26 26 26 26 26 26 26 26 26 27 27 28 28 28 29 29 30 31 31 30 31 31 32
24 24 25 24 24 24 25 27 28 28 28 27 26 26 26 26 26 26 27 27 26 26 26 26 25 25 25 26 26 27 27 27 28 29 29 29 29 30 30 31 31 31 30
24 24 25 24 25 25 26 27 27 28 27 26 25 25 25 26 27 27 27 27 27 27 26 25 25 25 26 27 27 26 27 27 28 28 28 28 29 29 30 31 31 31 30
26 26 26 26 26 26 26 26 26 26 25 24 24 24 25 26 27 27 27 27 27 26 26 25 25 25 26 26 26 26 26 27 27 28 28 28 29 29 30 31 31 31 30
27 27 27 27 26 26 25 25 25 25 25 25 25 26 26 27 27 28 27 27 26 25 26 26 25 25 25 25 26 26 26 26 27 28 28 29 29 30 30 30 30 31 30
26 26 26 25 25 25 25 25 26 25 25 25 26 26 27 27 28 28 28 27 26 26 26 26 26 25 25 25 25 25 26 27 27 28 29 29 29 29 29 29 29 29 28
25 25 25 25 25 25 25 26 26 26 26 25 26 27 27 28 28 28 28 27 26 26 26 26 25 25 25 25 25 25 26 26 27 27 28 27 27 27 27 26 26 27 27
25 25 25 25 25 26 26 26 26 25 25 25 26 26 27 27 27 27 26 25 25 25 25 25 24 24 24 24 24 25 25 26 26 26 25 25 25 25 25 25 24 24 25
25 25 25 25 26 26 26 26 25 25 24 24 24 25 25 26 25 25 25 25 24 24 24 24 23 24 24 24 25 25 25 25 24 24 23 23 23 23 23 24 24 24 25
25 25 25 25 25 26 26 25 25 25 25 25 24 25 25 25 24 24 24 24 24 24 23 23 23 24 25 25 26 25 25 24 23 23 23 22 22 22 22 22 23 23 23
24 24 24 25 25 26 25 25 24 24 24 24 25 25 25 25 24 24 24 23 23 23 23 23 23 24 25 24 24 24 23 22 22 22 22 22 21 21 21 21 21 22 22
23 23 24 25 25 25 24 23 23 23 23 23 24 24 24 24 23 23 22 22 22 22 22 22 23 23 23 23 23 23 22 21 21 21 21 21 21 20 20 21 20 20 21
23 23 24 24 24 24 23 23 23 23 23 23 23 23 23 22 22 21 21 21 21 21 21 22 22 22 23 23 22 22 20 20 20 20 20 21 21 20 20 20 19 19 20
24 24 24 24 24 24 23 23 22 22 22 22 22 22 22 22 22 21 21 21 21 21 21 21 22 22 22 21 21 21 20 20 19 19 19 19 19 19 19 19 19 19 20
Wind_Direction
279 279 282 287 290 291 291 289 290 290 288 288 289 288 286 286 286 285 283 282 278 277 276 274 273 271 270 271 269 268 266 265 264 264 263 264 264 262 263 263 262 262 261
278 280 282 287 290 291 292 290 290 290 289 289 290 289 288 287 287 285 283 282 281 279 277 276 273 273 272 270 268 268 268 266 265 264 264 264 265 264 263 262 262 262 262
280 280 283 287 290 290 291 291 292 291 291 290 290 290 289 288 287 286 283 282 281 280 279 277 275 274 273 270 269 269 268 267 267 267 267 267 267 266 265 262 262 262 262
281 283 284 286 289 291 291 292 292 292 292 291 291 291 291 289 287 285 285 284 283 282 281 280 278 276 274 273 271 271 269 268 269 268 267 268 267 266 265 263 262 263 262
284 283 283 284 288 290 289 291 293 293 294 293 292 291 290 289 288 287 287 287 287 286 285 282 281 277 275 274 272 272 270 269 268 269 267 266 266 266 266 264 262 261 261
287 288 286 286 288 289 289 291 292 294 294 294 292 290 289 289 289 289 289 289 289 288 286 285 283 279 275 273 273 272 271 270 269 269 267 266 265 265 264 262 260 260 259
288 287 287 290 292 291 292 293 293 294 294 294 293 289 288 288 289 290 290 290 290 291 289 287 284 281 277 274 272 273 273 271 270 270 268 266 265 264 263 261 260 260 260
286 286 287 290 291 291 291 292 294 294 293 293 293 291 289 289 289 290 292 291 290 290 289 288 287 284 280 278 275 274 273 272 272 269 266 265 265 265 263 261 260 260 261
286 286 287 289 290 290 291 292 293 292 292 292 292 291 290 292 292 293 293 290 289 289 288 287 286 285 284 282 279 277 275 273 272 269 267 265 264 265 264 263 263 263 262
285 285 286 288 289 289 290 291 292 291 291 292 292 294 293 294 294 293 293 291 289 289 289 287 286 285 285 284 282 278 276 274 271 269 267 266 266 266 265 264 264 264 264
284 284 285 287 287 288 288 290 291 291 291 293 295 295 295 293 293 293 292 291 291 290 289 288 287 285 284 284 282 280 276 275 274 272 269 267 266 266 267 267 266 266 266
283 283 285 286 287 287 288 290 292 293 294 295 295 294 294 292 292 293 293 293 292 292 292 291 289 287 285 283 281 279 278 276 274 272 270 267 266 266 267 267 267 267 267
282 281 283 287 288 289 291 293 294 295 295 294 294 294 293 292 293 294 296 296 294 293 293 293 291 289 287 284 281 279 278 277 275 273 271 269 268 267 266 266 267 268 268
286 284 285 288 289 291 292 293 294 295 295 293 292 293 292 292 293 294 296 296 295 293 292 292 290 287 286 284 282 280 278 277 276 274 273 271 269 268 267 267 268 268 268
286 287 288 288 288 290 292 293 294 295 294 292 291 291 292 294 294 294 295 295 294 293 292 292 289 287 286 286 284 282 280 279 277 275 274 271 270 268 267 267 267 268 266
287 287 286 286 286 288 291 293 295 295 294 291 290 290 291 294 295 295 296 296 294 294 294 293 292 291 289 287 285 283 281 279 277 276 274 273 272 270 269 268 267 266 265
287 286 286 286 287 289 290 292 294 294 292 290 290 291 293 295 295 296 296 296 295 294 296 295 292 291 290 289 287 284 283 282 279 277 276 275 274 273 271 269 267 266 265
288 288 288 288 289 290 291 293 294 294 292 290 290 290 292 294 295 295 295 295 295 295 296 295 293 290 290 289 288 287 285 284 282 279 278 276 275 274 273 271 268 266 264
290 290 289 289 290 291 292 293 293 292 292 292 291 291 291 293 294 295 295 294 295 295 295 295 292 291 290 291 291 290 289 287 285 283 280 277 277 275 273 270 268 264 263
289 290 289 289 289 290 291 293 293 292 292 292 293 293 292 293 295 295 295 294 294 295 295 295 294 293 292 292 293 292 291 290 289 286 281 278 278 275 272 268 266 265 263
288 289 289 289 289 290 291 292 293 292 292 294 296 296 295 294 295 296 296 294 294 295 294 294 294 294 293 294 294 293 292 290 288 286 281 278 278 276 274 270 267 266 265
288 288 288 289 289 290 291 292 292 292 291 292 294 296 296 296 296 297 297 296 295 295 296 295 294 294 295 295 295 294 293 290 287 284 282 280 280 277 275 272 270 269 268
287 288 288 288 290 290 290 291 291 292 292 292 293 294 295 296 296 296 296 296 296 295 295 295 295 296 296 297 297 297 295 292 289 286 282 280 279 278 276 274 271 270 269
288 290 290 290 291 291 291 291 292 292 292 293 292 293 295 296 296 295 295 296 297 296 296 297 298 299 299 300 300 297 295 293 291 289 285 281 279 277 275 273 272 270 269
289 291 292 293 293 292 292 292 292 292 292 292 292 293 294 295 295 295 295 296 298 298 298 299 301 302 303 303 302 300 298 296 294 292 288 282 280 278 276 272 270 269 269
288 289 291 291 291 291 292 293 293 293 293 292 292 292 292 293 295 295 296 297 298 299 299 300 301 302 304 304 302 300 299 299 298 295 293 287 282 279 276 272 268 267 267
Height
5792 5792 5791 5790 5789 5787 5786 5784 5783 5781 5780 5778 5776 5774 5773 5772 5771 5769 5768 5767 5766 5765 5765 5764 5764 5763 5763 5764 5764 5764 5765 5765 5766 5767 5767 5767 5767 5768 5769 5770 5770 5771 5772
5786 5786 5785 5784 5783 5781 5779 5777 5776 5774 5773 5771 5769 5767 5765 5764 5762 5761 5760 5759 5758 5757 5757 5756 5755 5755 5755 5755 5755 5756 5756 5757 5757 5758 5759 5759 5759 5759 5760 5761 5761 5762 5762
5780 5780 5779 5778 5776 5774 5772 5770 5769 5767 5765 5763 5761 5759 5757 5756 5754 5753 5752 5751 5750 5749 5749 5748 5747 5747 5746 5746 5746 5747 5747 5747 5748 5749 5749 5750 5750 5750 5750 5751 5752 5752 5753
5774 5773 5772 5771 5769 5767 5765 5764 5762 5760 5758 5756 5754 5752 5750 5748 5746 5745 5744 5743 5742 5741 5740 5739 5738 5738 5737 5737 5737 5737 5737 5738 5739 5739 5740 5740 5740 5741 5741 5741 5742 5743 5744
5767 5767 5765 5764 5762 5760 5759 5757 5755 5753 5751 5749 5747 5745 5742 5741 5739 5738 5737 5735 5734 5733 5731 5730 5729 5728 5728 5728 5728 5728 5728 5728 5729 5729 5730 5730 5731 5731 5732 5732 5732 5733 5734
5761 5760 5758 5757 5755 5753 5752 5750 5748 5746 5744 5742 5739 5738 5736 5734 5732 5731 5729 5728 5726 5724 5723 5722 5720 5720 5719 5719 5719 5719 5719 5719 5719 5720 5720 5721 5721 5721 5721 5722 5723 5724 5725
5754 5753 5751 5750 5748 5747 5745 5743 5741 5739 5737 5735 5732 5731 5729 5727 5725 5724 5722 5720 5718 5716 5715 5714 5713 5711 5710 5710 5710 5709 5709 5709 5710 5710 5710 5710 5710 5711 5711 5712 5713 5714 5716
5747 5746 5744 5743 5742 5740 5738 5737 5735 5733 5731 5728 5726 5724 5722 5720 5718 5716 5714 5712 5711 5709 5707 5706 5705 5703 5702 5701 5700 5700 5700 5700 5700 5700 5701 5701 5701 5701 5701 5702 5703 5704 5705
5740 5738 5737 5736 5735 5733 5732 5730 5728 5726 5724 5722 5720 5718 5716 5714 5711 5709 5707 5705 5703 5701 5700 5698 5697 5695 5694 5693 5692 5692 5692 5691 5690 5690 5691 5691 5691 5691 5692 5692 5693 5694 5695
5732 5731 5730 5729 5727 5726 5725 5723 5721 5719 5717 5715 5713 5711 5709 5706 5704 5702 5699 5697 5696 5694 5692 5690 5689 5687 5686 5684 5684 5683 5683 5682 5682 5681 5681 5682 5682 5682 5683 5683 5684 5684 5685
5725 5724 5723 5721 5720 5719 5717 5716 5714 5712 5709 5707 5706 5704 5701 5699 5697 5694 5692 5690 5688 5686 5684 5682 5680 5679 5677 5676 5675 5674 5674 5673 5673 5672 5672 5673 5673 5673 5673 5673 5674 5675 5675
5718 5717 5715 5714 5712 5711 5710 5708 5706 5704 5702 5700 5698 5696 5694 5691 5689 5687 5684 5682 5680 5678 5676 5674 5672 5670 5668 5667 5666 5666 5665 5664 5664 5663 5663 5664 5664 5664 5664 5664 5664 5665 5665
5710 5709 5708 5707 5705 5704 5703 5701 5699 5697 5694 5692 5690 5688 5686 5684 5681 5679 5677 5674 5672 5670 5668 5666 5664 5662 5660 5659 5658 5657 5656 5656 5655 5655 5655 5654 5654 5654 5654 5654 5655 5655 5655
5703 5702 5700 5699 5698 5696 5695 5693 5691 5689 5687 5684 5682 5680 5678 5676 5674 5672 5669 5667 5664 5662 5660 5658 5656 5654 5653 5651 5650 5649 5648 5647 5646 5646 5645 5645 5644 5644 5645 5645 5645 5646 5646
5696 5695 5693 5691 5690 5689 5687 5685 5683 5681 5679 5677 5675 5673 5671 5669 5667 5664 5662 5659 5657 5655 5653 5651 5649 5647 5645 5643 5642 5641 5639 5638 5637 5637 5636 5635 5635 5635 5635 5635 5635 5636 5636
5689 5687 5685 5684 5682 5681 5679 5678 5675 5674 5672 5669 5668 5666 5663 5661 5659 5656 5654 5652 5649 5647 5645 5643 5641 5639 5637 5635 5634 5632 5631 5630 5629 5628 5627 5627 5626 5626 5626 5625 5625 5626 5626
5680 5679 5677 5676 5674 5673 5671 5670 5668 5666 5664 5662 5660 5658 5656 5654 5651 5649 5647 5644 5642 5639 5637 5635 5633 5631 5629 5627 5626 5624 5623 5622 5621 5619 5619 5618 5617 5616 5616 5616 5615 5616 5616
5672 5671 5669 5668 5667 5665 5664 5662 5660 5659 5657 5655 5653 5651 5649 5646 5644 5641 5639 5636 5634 5632 5630 5627 5625 5623 5621 5620 5618 5617 5615 5613 5612 5611 5609 5609 5608 5607 5606 5606 5605 5606 5606
5665 5663 5662 5660 5659 5658 5656 5654 5653 5651 5649 5647 5645 5643 5641 5638 5636 5633 5631 5629 5627 5624 5622 5620 5618 5616 5614 5612 5610 5608 5607 5605 5603 5602 5600 5599 5598 5597 5596 5596 5596 5596 5597
5657 5656 5654 5653 5651 5650 5648 5646 5645 5643 5641 5639 5638 5635 5633 5631 5628 5626 5623 5621 5619 5617 5614 5612 5610 5608 5606 5604 5602 5600 5598 5596 5595 5593 5592 5590 5589 5588 5588 5587 5587 5588 5588
5650 5649 5647 5645 5644 5642 5641 5639 5637 5635 5633 5632 5630 5627 5625 5623 5621 5618 5616 5614 5612 5610 5607 5606 5604 5601 5599 5597 5594 5592 5590 5588 5587 5585 5583 5582 5581 5580 5579 5579 5579 5579 5580
5642 5641 5640 5638 5636 5635 5633 5631 5629 5627 5626 5624 5622 5620 5618 5616 5613 5611 5609 5607 5605 5603 5601 5599 5597 5595 5592 5590 5587 5585 5583 5581 5579 5577 5576 5575 5574 5573 5572 5571 5571 5571 5572
5634 5633 5632 5630 5629 5627 5625 5623 5621 5620 5618 5616 5615 5613 5611 5609 5606 5604 5602 5600 5598 5597 5594 5592 5590 5588 5585 5582 5580 5578 5575 5573 5572 5570 5568 5567 5566 5565 5565 5564 5564 5564 5565
5627 5625 5624 5622 5620 5619 5617 5615 5614 5612 5611 5609 5608 5606 5604 5602 5600 5598 5596 5594 5592 5590 5588 5586 5583 5581 5578 5576 5573 5571 5568 5566 5564 5563 5561 5560 5559 5558 5558 5557 5557 5558 5558
5620 5618 5617 5615 5613 5612 5610 5608 5607 5605 5604 5602 5601 5599 5597 5596 5594 5592 5590 5588 5586 5584 5582 5580 5577 5575 5572 5569 5567 5564 5562 5560 5558 5556 5555 5553 5552 5552 5551 5551 5550 5551 5551
5613 5611 5610 5608 5606 5605 5603 5602 5600 5598 5597 5595 5594 5592 5591 5589 5587 5586 5584 5582 5580 5578 5576 5574 5571 5569 5566 5563 5561 5559 5556 5554 5552 5550 5548 5547 5546 5545 5545 5544 5544 5544 5544